Location: Unspecified
(0.0000°N, 0.0000°E)
Time: 01:44:39
(UTC+00:00)

Vanguard 3 - Pass Details

Date: 23 November 2019
Orbit: 508 x 3263 km, 33.3° (Epoch: 11 December)

Event Time Altitude Azimuth Distance (km) Brightness Sun altitude
Rises 09:21:35 0° 239° (WSW) 4,469 10.8 49.2°
Reaches altitude 10° 09:24:03 10° 240° (WSW) 3,777 10.5 49.7°
Maximum altitude 09:34:41 77° 325° (NW) 2,345 10.2 51.9°
Drops below altitude 10° 09:52:48 10° 50° (NE) 6,026 11.8 55.6°
Sets 09:57:55 0° 51° (NE) 7,182 12.1 56.6°
